Погода в Женеве

Швейцария     46°12′12″N   6°08′24″E
темп.,
°C
ветер,
м/с
пор.,
м/с
влажн.,
%
обл.,
%
осадки,
мм/ч
давл.,
гПа
погр.,
м
17 апреля, сб
сб1723:00+3св712676 0.0 1019556
02:00+1св578071 0.0 1021309
05:000св4688100 0.0 1021237
08:00+1ссв568299 0.0 1021597
11:00+4св456985 0.0 1020929
14:00+8св565396 0.0 10181309
17:00+10ссв7846100 0.0 10151609
20:00+7св8126595 0.0 1017823
18 апреля, вс
вс1823:00+5ссв611734 0.0 1018553
02:00+2св35848 0.0 1019218
05:00+2св248983 0.0 1019217
08:00+4ссв468288 0.0 1019728
11:00+6св566686 0.0 10191168
14:00+8св4560100 0.1 10181321
17:00+7с3471100 0.3 10181062
20:00+6ссз128390 0.8 1019223
19 апреля, пн
пн1923:00+3ссв12859 0.1 1020105
02:00+1всв118811 0.1 102096
05:00+1ссв129262 0.0 1020105
08:00+3св248581 0.0 1019474
11:00+7ссв247022 0.0 1018781
14:00+11св345110 0.0 10151215
17:00+12ссв344943 0.1 10141541
20:00+8с237445 0.1 1014133
20 апреля, вт
вт2023:00+4всв12835 0.0 101669
02:00+2в11870 0.0 101665
05:00+1в11891 0.0 101566
08:00+3св11843 0.0 1015132
11:00+8ссв22671 0.0 1014558
14:00+12ссв22510 0.0 1012724
17:00+13ссв234781 0.1 1010750
20:00+9сз2273100 0.3 101165
21 апреля, ср
ср2123:00+6ю1281100 0.0 101429
02:00+5ю1182100 0.0 101540
05:00+4в01846 0.0 101541
08:00+5ю01815 0.0 101681
11:00+10св23660 0.0 1015564
14:00+13ссв34479 0.1 10131042
17:00+15ссз234891 0.1 10121511
20:00+10ссз127595 0.8 101530